Thermopolis, WY

10:18 PM MDT on May 28, 2017 (GMT -0600)
Thermopolis

Weather History for KTBX - February, 2014

Change the Weather History Date:

Saturday, February 22, 2014

  Actual Average (KWRL) Record (KWRL)
Temperature  
Mean Temperature 12 °F -  
Max Temperature 15 °F 43 °F 59 °F (1970)
Min Temperature 8 °F 16 °F -10 °F (1993)
Degree Days  
Heating Degree Days 54    
Moisture  
Dew Point 9 °F    
Average Humidity 90    
Maximum Humidity 93    
Minimum Humidity 79    
Precipitation  
Precipitation 0.00 in - - ()
Sea Level Pressure  
Sea Level Pressure 29.86 in    
Wind  
Wind Speed 16 mph (NW)    
Max Wind Speed 36 mph    
Max Gust Speed 45 mph    
Visibility 9 miles    
Events      
Averages and records for this station are not official NWS values.
T = Trace of Precipitation, MM = Missing Value Source: NWS Daily Summary

Daily Weather History Graph

Daily Weather History Graph

Search for Another Location

Airport or City:

Trip Planner

Search our weather history database for the weather conditions in past years. The results will help you decide how hot, cold, wet, or windy it might be!

Date:

Astronomy

Feb. 22, 2014 Rise Set
Actual Time 7:00 AM MST 5:52 PM MST
Civil Twilight 6:31 AM MST 6:21 PM MST
Nautical Twilight 5:58 AM MST 6:55 PM MST
Astronomical Twilight 5:25 AM MST 7:28 PM MST
Moon 1:03 AM MST (2/22) 11:01 AM MST (2/22)
Length of Visible Light 11h 50m
Length of Day
10h 52m
Waning Gibbous, 49% of the Moon is Illuminated
Feb 22
Waning Gibbous
Mar 1
New
Mar 8
First Quarter
Mar 16
Full
Mar 23
Last Quarter

Hourly Weather History & Observations

Time (MST) Temp. Windchill Dew Point Humidity Pressure Visibility Wind Dir Wind Speed Gust Speed Precip Events Conditions
12:15 AM 15.8 °F - 12.2 °F 86% 29.81 in - Calm Calm - N/A   Unknown
12:35 AM - - - N/A% 29.81 in - North 5.8 mph - N/A   Unknown
12:55 AM - - - N/A% 29.82 in - North 4.6 mph - N/A   Unknown
1:15 AM - - - N/A% 29.82 in - NNW 6.9 mph - N/A   Unknown
1:35 AM - - - N/A% 29.81 in - NW 10.4 mph - N/A   Unknown
1:55 AM - - - N/A% 29.81 in - NW 12.7 mph - N/A   Overcast
2:15 AM - - - N/A% 29.81 in - NW 11.5 mph - N/A   Overcast
2:35 AM - - - N/A% 29.81 in - NNW 13.8 mph - N/A   Overcast
2:55 AM - - - N/A% 29.81 in - NW 18.4 mph - N/A   Overcast
3:15 AM 14.0 °F -3.4 °F 12.2 °F 93% 29.81 in - NW 19.6 mph - N/A   Overcast
3:35 AM 14.0 °F -3.4 °F 12.2 °F 93% 29.81 in - NW 19.6 mph 28.8 mph N/A   Overcast
3:55 AM 14.0 °F -3.0 °F 12.2 °F 93% 29.82 in - NW 18.4 mph - N/A   Overcast
4:15 AM 14.0 °F -2.5 °F 12.2 °F 93% 29.81 in - NW 17.3 mph - N/A   Overcast
4:35 AM 14.0 °F -4.3 °F 12.2 °F 93% 29.80 in - NW 21.9 mph - N/A   Overcast
4:55 AM 14.0 °F -2.5 °F 12.2 °F 93% 29.81 in - NW 17.3 mph - N/A   Overcast
5:15 AM 14.0 °F -3.0 °F 12.2 °F 93% 29.81 in - NW 18.4 mph - N/A   Overcast
5:35 AM 14.0 °F -2.5 °F 12.2 °F 93% 29.82 in - NW 17.3 mph - N/A   Overcast
5:55 AM 14.0 °F -3.4 °F 12.2 °F 93% 29.82 in - NW 19.6 mph - N/A   Overcast
6:15 AM 14.0 °F - 12.2 °F 93% 29.82 in - North - - N/A   Overcast
6:35 AM 14.0 °F -4.7 °F 12.2 °F 93% 29.82 in - NW 23.0 mph - N/A   Overcast
6:55 AM 14.0 °F -5.5 °F 12.2 °F 93% 29.82 in - NW 25.3 mph - N/A   Overcast
7:15 AM 14.0 °F - 10.4 °F 86% 29.82 in - North - - N/A   Overcast
7:35 AM 14.0 °F -6.8 °F 10.4 °F 86% 29.82 in - NW 29.9 mph 33.4 mph N/A   Overcast
7:55 AM 12.2 °F -10.8 °F 10.4 °F 92% 29.82 in - NW 35.7 mph - N/A   Overcast
8:15 AM 12.2 °F -10.2 °F 10.4 °F 92% 29.82 in - NW 33.4 mph - N/A   Overcast
8:35 AM 12.2 °F -9.9 °F 10.4 °F 92% 29.83 in - NW 32.2 mph - N/A   Overcast
8:55 AM 12.2 °F -9.9 °F 10.4 °F 92% 29.83 in - NW 32.2 mph - N/A   Overcast
9:15 AM 12.2 °F -9.9 °F 10.4 °F 92% 29.83 in - NW 32.2 mph - N/A   Overcast
9:35 AM 12.2 °F -10.8 °F 10.4 °F 92% 29.83 in - NW 35.7 mph 44.9 mph N/A   Overcast
9:55 AM 12.2 °F -10.5 °F 10.4 °F 92% 29.85 in - NW 34.5 mph - N/A   Overcast
10:15 AM 12.2 °F -9.6 °F 10.4 °F 92% 29.85 in 3.0 mi NW 31.1 mph 36.8 mph N/A   Overcast
10:35 AM 12.2 °F -10.2 °F 10.4 °F 92% 29.86 in 4.0 mi NW 33.4 mph - N/A   Overcast
10:55 AM 12.2 °F -9.9 °F 10.4 °F 92% 29.86 in 3.0 mi NW 32.2 mph - N/A   Overcast
11:15 AM 12.2 °F -8.9 °F 10.4 °F 92% 29.86 in 4.0 mi NW 28.8 mph - N/A   Overcast
11:35 AM 12.2 °F -8.6 °F 10.4 °F 92% 29.87 in 4.0 mi NW 27.6 mph - N/A   Overcast
11:55 AM 12.2 °F -9.3 °F 10.4 °F 92% 29.86 in 7.0 mi NW 29.9 mph - N/A   Overcast
12:15 PM 12.2 °F -8.2 °F 10.4 °F 92% 29.87 in 5.0 mi NW 26.5 mph - N/A   Overcast
12:35 PM 12.2 °F -7.9 °F 10.4 °F 92% 29.87 in 5.0 mi NW 25.3 mph - N/A   Overcast
12:55 PM 12.2 °F -7.9 °F 10.4 °F 92% 29.87 in 7.0 mi NW 25.3 mph - N/A   Overcast
1:15 PM 12.2 °F -8.2 °F 10.4 °F 92% 29.86 in 10.0 mi NW 26.5 mph - N/A   Overcast
1:35 PM 12.2 °F -7.9 °F 10.4 °F 92% 29.86 in 10.0 mi NW 25.3 mph - N/A   Overcast
1:55 PM 12.2 °F -7.5 °F 10.4 °F 92% 29.86 in 10.0 mi NW 24.2 mph - N/A   Overcast
2:15 PM 12.2 °F -7.9 °F 10.4 °F 92% 29.85 in 10.0 mi NNW 25.3 mph - N/A   Overcast
2:35 PM 12.2 °F -6.7 °F 8.6 °F 85% 29.85 in 10.0 mi NNW 21.9 mph - N/A   Overcast
2:55 PM 10.4 °F -9.5 °F 8.6 °F 92% 29.87 in 10.0 mi NW 23.0 mph - N/A   Overcast
3:15 PM 10.4 °F -8.6 °F 8.6 °F 92% 29.87 in 10.0 mi NNW 20.7 mph - N/A   Overcast
3:35 PM 10.4 °F -7.7 °F 8.6 °F 92% 29.87 in 10.0 mi NW 18.4 mph - N/A   Overcast
3:55 PM 10.4 °F -7.2 °F 8.6 °F 92% 29.87 in 10.0 mi NNW 17.3 mph - N/A   Overcast
4:15 PM 10.4 °F -6.6 °F 8.6 °F 92% 29.88 in 10.0 mi NNW 16.1 mph - N/A   Overcast
4:35 PM 10.4 °F -6.0 °F 8.6 °F 92% 29.88 in 10.0 mi NNW 15.0 mph - N/A   Overcast
4:55 PM 10.4 °F -5.4 °F 8.6 °F 92% 29.89 in 10.0 mi NNW 13.8 mph - N/A   Overcast
5:15 PM 10.4 °F -6.6 °F 8.6 °F 92% 29.89 in 10.0 mi NNW 16.1 mph - N/A   Overcast
5:35 PM 10.4 °F -6.6 °F 6.8 °F 85% 29.89 in 10.0 mi NNW 16.1 mph - N/A   Overcast
5:55 PM 10.4 °F -6.0 °F 6.8 °F 85% 29.90 in 10.0 mi NNW 15.0 mph - N/A   Overcast
6:15 PM 8.6 °F -9.5 °F 5.0 °F 85% 29.91 in 10.0 mi NNW 17.3 mph - N/A   Overcast
6:35 PM 8.6 °F -9.5 °F 5.0 °F 85% 29.91 in 10.0 mi NNW 17.3 mph - N/A   Overcast
6:55 PM 8.6 °F -8.3 °F 5.0 °F 85% 29.92 in 10.0 mi NNW 15.0 mph - N/A   Overcast
7:15 PM 8.6 °F -8.9 °F 5.0 °F 85% 29.92 in 10.0 mi NNW 16.1 mph - N/A   Unknown
7:35 PM 8.6 °F -9.5 °F 5.0 °F 85% 29.92 in 10.0 mi NNW 17.3 mph - N/A   Unknown
7:55 PM 8.6 °F -10.0 °F 5.0 °F 85% 29.92 in 10.0 mi NW 18.4 mph - N/A   Unknown
8:15 PM 8.6 °F -9.5 °F 5.0 °F 85% 29.92 in 10.0 mi NNW 17.3 mph - N/A   Unknown
8:35 PM 8.6 °F -10.0 °F 5.0 °F 85% 29.92 in 10.0 mi NNW 18.4 mph - N/A   Overcast
8:55 PM 8.6 °F -9.5 °F 5.0 °F 85% 29.92 in 10.0 mi NNW 17.3 mph - N/A   Overcast
9:15 PM 8.6 °F -8.3 °F 5.0 °F 85% 29.92 in 10.0 mi NNW 15.0 mph - N/A   Overcast
9:35 PM 8.6 °F -7.7 °F 5.0 °F 85% 29.92 in 10.0 mi NNW 13.8 mph - N/A   Overcast
9:55 PM 8.6 °F -7.7 °F 5.0 °F 85% 29.93 in 10.0 mi NW 13.8 mph - N/A   Overcast
10:15 PM 8.6 °F -6.3 °F 5.0 °F 85% 29.93 in 10.0 mi NNW 11.5 mph - N/A   Overcast
10:35 PM 8.6 °F -4.7 °F 5.0 °F 85% 29.94 in 10.0 mi NW 9.2 mph - N/A   Overcast
10:55 PM 8.6 °F -1.3 °F 3.2 °F 79% 29.93 in 10.0 mi NW 5.8 mph - N/A   Overcast
11:15 PM 8.6 °F 2.0 °F 5.0 °F 85% 29.93 in 10.0 mi NW 3.5 mph - N/A   Overcast
11:35 PM 8.6 °F - 5.0 °F 85% 29.94 in 10.0 mi Calm Calm - N/A   Unknown
11:55 PM 8.6 °F - 5.0 °F 85% 29.93 in 10.0 mi Calm Calm - N/A   Unknown